map of RUN home
Great Circle Mapper logo
RUN - Airport
Location
City:  St-Denis, Réunion
Near (Alt.):St-Denis de la Réunion
Name:Roland Garros
Old (Alt.):Gillot
ICAO / IATA:FMEE / RUN

Details
Type:Airport (Aerodrome, Airfield)
Latitude:20°53'24"S (-20.889999)
Longitude:55°30'59"E (55.516389)
Elevation:66 ft (20 m)
Runways:2
Longest:10499 × 148 ft (3200 × 45 m), paved

Time
Time Zone:UTC+4
Local Time:

Weather
METAR:FMEE 251030Z 09005KT 060V120 9999 FEW023 SCT056 27/20 Q1015 NOSIG
TAF:FMEE 250500Z 2506/2612 09014KT 9999 FEW020 SCT070
TEMPO 2506/2510 SHRA FEW020TCU
BECMG 2515/2516 15008KT PROB30
TEMPO 2521/2603 -SHRA
BECMG 2604/2606 03012KT
TEMPO 2606/2612 32010KT PROB30
TEMPO 2610/2612 5000 SHRA FEW020CB

Related Locations
Nearby:
Farthest:CDI: 11676 mi / 18790 km
Cedros [Isla de Cedros Airport], Isla de Cedros, BCN, MX

Find:

   beyond  
but within

Other Information
Maps:
NOTAMs:
Links:
Sources:

  
flag of Réunion   

Airport Diagram

Airport diagram for RUN

Airport diagram (OBSOLETE) from NGA

Sectional Chart

Flight Planning
at skyvector.com

Satellite Image

Google Maps Satellite View

 

Copyright © 2004-2014 Karl L. Swartz. All rights reserved.
The Great Circle Mapper name and logo are trademarks of the Great Circle Mapper.
All other trademarks mentioned herein belong to their respective owners.
Please see credits for attibutions and further copyright information.

  Follow gcmap on Facebook Follow gcmap on Twitter

hCard Microformat

Geo Microformat